COSMOS 1275 DEB, 42162

Orbit data source: Space-Track

COSMOS 1275 DEB, 42162 is space debris in LEO originally from a launch on Thu, 04 Jun 1981 UTC launched from the Plesetsk Missile And Space Complex (PKMTR). Debris objects in space refer to the collection of defunct objects orbiting the Earth. Examples of debris include non-operational satellites, rocket bodies, and fragments generated from explosions, collisions, or faulty payload assembly.

Loading next visibility...
Identifier
42162, 1981-053SA
Orbit
LEO
Country
Flag of CISCIS
Related business
Manufacturer
Unknown
Mission
Spacecraft
Bus & Motor
Unknown
Mass
Unknown
Launch date (UTC)
1981-06-04 (45 years ago)
Launch vehicle
Unknown
Launch site
Plesetsk Missile And Space Complex (PKMTR)
Object type
Payload
Rocket body
Debris
Shape & HBR
Unknown shape, 0.1 m
Radar Cross Section
Small (<0.1 m²)

Expand to show TLE details & history
Last TLE update: 1 month ago

TLE from 1 month ago
0 COSMOS 1275 DEB
1 42162U 81053SA  26220.10688751  .00000974  00000-0  73417-3 0  9995
2 42162  82.8772 136.3350 0073055 196.7969 222.5250 13.92088159645402
Epoch: 2026-08-08T02:33Z
TLE epoch observation values (Epoch: 2026-08-08T02:33:55.080Z)
Latitude
58.1337°
Longitude
152.76812°
Altitude
970.612 km
Speed
7.352 km/s
True Right ascension
09h 51m 28s
True Declination
57° 59' 02"
Sunlit
Object was in daylight at epoch
Visualization orbit readout
Latitude
Unknown
Longitude
Unknown
Altitude
Unknown
Speed
Unknown
Apparent Right ascension
Unknown
Apparent Declination
Unknown
Sunlit
N/A
Visualization observer readout
Local Sidereal Time
23:49:18
Azimuth
Unknown
Elevation
Unknown
Doppler factor
Unknown
Orbital elements
Apogee altitude
971.755 km
Perigee altitude
865.144 km
Semi-major axis
7,296.587 km
Eccentricity
0.00731
Inclination
82.8772°
RAAN
136.335°
Arg. of periapsis
196.7969°
True anomaly
221.96295°
Mean anomaly
222.525°
Eccentric anomaly
222.2436°
Mean motion
3.48228 °/min
Orbital period
103.38 mins
BSTAR
0.00073417
Loading maneuver chart data...
Computing Atmospheric mass density...
Loading historical data...
Loading historical data...
Loading historical data...
Loading historical data...
Loading historical data...
Loading historical data...
Loading historical data...

Documentation

Showing up to 5 results
|